EW0941 Weather Reports


time (UTC)temp
C
wind
direction
speed
KPH
gust
KPH
rain 1hr
cm
rain 24hr
cm
rain mn
cm
humidity
%
barometer
mb
20260504231543 15 142 0.0 0.0 0.00 0.00 0.00 60 1005.8
20260504231039 16 142 0.0 0.0 0.00 0.00 0.00 59 1005.6
20260504230538 16 142 0.0 0.0 0.00 0.00 0.00 58 1005.6
20260504230039 16 142 0.0 0.0 0.00 0.00 0.00 58 1005.5
20260504225536 16 137 0.0 0.0 0.00 0.00 0.00 57 1005.6
20260504225038 17 137 0.0 0.0 0.00 0.00 0.00 56 1005.4
20260504224540 17 137 0.0 0.0 0.00 0.00 0.00 55 1005.4
20260504224037 17 137 0.0 0.0 0.00 0.00 0.00 54 1005.4
20260504223536 17 133 0.0 1.6 0.00 0.00 0.00 52 1005.2
20260504223054 18 127 0.0 1.6 0.00 0.00 0.00 51 1005.2
20260504222536 18 280 0.0 0.0 0.00 0.00 0.00 49 1005.2
20260504222035 18 280 0.0 0.0 0.00 0.00 0.00 47 1005.1
20260504221538 18 281 0.0 0.0 0.00 0.00 0.00 45 1005.1
20260504221037 18 281 0.0 0.0 0.00 0.00 0.00 44 1005.1
20260504220534 18 281 0.0 0.0 0.00 0.00 0.00 44 1005.1
20260504220035 18 281 0.0 0.0 0.00 0.00 0.00 45 1005.0
20260504215535 18 281 0.0 0.0 0.00 0.00 0.00 45 1005.1
20260504215034 18 271 0.0 0.0 0.00 0.00 0.00 43 1005.1
20260504214536 18 271 0.0 0.0 0.00 0.00 0.00 45 1005.1
20260504214033 18 280 0.0 0.0 0.00 0.00 0.00 45 1005.1
20260504213534 18 275 0.0 0.0 0.00 0.00 0.00 45 1005.1
20260504213048 18 275 0.0 0.0 0.00 0.00 0.00 47 1005.1
20260504212533 18 319 0.0 0.0 0.00 0.00 0.00 45 1005.1
20260504212034 18 323 0.0 0.0 0.00 0.00 0.00 45 1005.0
20260504211535 18 319 0.0 0.0 0.00 0.00 0.00 46 1005.0
20260504211034 18 207 0.0 0.0 0.00 0.00 0.00 46 1005.1
20260504210536 19 198 0.0 0.0 0.00 0.00 0.00 46 1005.1
20260504210038 19 234 0.0 0.0 0.00 0.00 0.00 45 1005.1
20260504205533 19 51 0.0 0.0 0.00 0.00 0.00 46 1005.1
20260504205036 18 250 0.0 0.0 0.00 0.00 0.00 46 1005.0
20260504204542 18 245 0.0 0.0 0.00 0.00 0.00 45 1005.0
20260504204033 18 334 0.0 0.0 0.00 0.00 0.00 46 1005.1
20260504203533 18 197 0.0 0.0 0.00 0.00 0.00 49 1005.1
20260504203030 18 275 0.0 0.0 0.00 0.00 0.00 48 1005.2
20260504202530 18 289 0.0 0.0 0.00 0.00 0.00 47 1005.1
20260504202029 18 252 0.0 0.0 0.00 0.00 0.00 48 1005.2
20260504201530 18 233 0.0 0.0 0.00 0.00 0.00 52 1005.2
20260504201032 18 295 0.0 0.0 0.00 0.00 0.00 53 1005.2
20260504200530 18 295 0.0 0.0 0.00 0.00 0.00 50 1005.4
20260504200033 18 326 0.0 0.0 0.00 0.00 0.00 53 1005.4
20260504195529 18 326 0.0 0.0 0.00 0.00 0.00 51 1005.5
20260504195029 18 338 0.0 0.0 0.00 0.00 0.00 53 1005.5
20260504194529 18 254 0.0 0.0 0.00 0.00 0.00 53 1005.6
20260504194028 17 326 0.0 0.0 0.00 0.00 0.00 53 1005.5
20260504193529 17 193 0.0 0.0 0.00 0.00 0.00 53 1005.7
20260504193029 17 53 0.0 0.0 0.00 0.00 0.00 52 1005.6
20260504192528 17 288 0.0 0.0 0.00 0.00 0.00 53 1005.6
20260504192028 17 311 0.0 0.0 0.00 0.00 0.00 53 1005.6
20260504191528 17 313 0.0 0.0 0.00 0.00 0.00 53 1005.6
20260504191028 17 21 0.0 0.0 0.00 0.00 0.00 54 1005.6
20260504190528 17 355 0.0 0.0 0.00 0.00 0.00 54 1005.7
20260504190028 17 360 0.0 0.0 0.00 0.00 0.00 55 1005.7
20260504185530 17 355 0.0 0.0 0.00 0.00 0.00 56 1005.9
20260504185027 16 336 0.0 0.0 0.00 0.00 0.00 59 1005.8
20260504184527 16 279 0.0 0.0 0.00 0.00 0.00 62 1005.8
20260504184027 15 324 0.0 0.0 0.00 0.00 0.00 59 1005.9
20260504183527 15 313 0.0 0.0 0.00 0.00 0.00 60 1006.0
20260504183026 15 326 0.0 0.0 0.00 0.00 0.00 59 1005.9
20260504182526 16 307 0.0 1.6 0.00 0.00 0.00 57 1005.9
20260504182026 16 307 0.0 1.6 0.00 0.00 0.00 57 1005.8
20260504181528 16 271 0.0 0.0 0.00 0.00 0.00 56 1005.9
20260504181029 16 264 0.0 3.2 0.00 0.00 0.00 55 1005.9
20260504180526 16 294 0.0 3.2 0.00 0.00 0.00 53 1005.8
20260504180026 16 286 0.0 0.0 0.00 0.00 0.00 51 1005.8
20260504175525 16 306 0.0 0.0 0.00 0.00 0.00 48 1005.6
20260504175025 16 308 0.0 1.6 0.00 0.00 0.00 49 1005.7
20260504174525 16 267 0.0 1.6 0.00 0.00 0.00 46 1005.8
20260504174025 16 46 0.0 1.6 0.00 0.00 0.00 46 1005.8
20260504173524 16 285 0.0 3.2 0.00 0.00 0.00 46 1005.8
20260504173024 16 273 0.0 3.2 0.00 0.00 0.00 46 1005.7
20260504172525 16 231 0.0 1.6 0.00 0.00 0.00 46 1005.7
20260504172027 16 284 0.0 1.6 0.00 0.00 0.00 49 1005.5
20260504171523 16 275 0.0 0.0 0.00 0.00 0.00 50 1005.5
20260504171023 16 171 0.0 0.0 0.00 0.00 0.00 55 1005.4
20260504170523 16 171 0.0 0.0 0.00 0.00 0.00 53 1005.3
20260504151008 16 207 0.0 0.0 0.00 0.00 0.00 54 1006.4
20260504150505 16 254 0.0 0.0 0.00 0.00 0.00 55 1006.6
20260504141052 13 281 0.0 0.0 0.00 0.05 0.00 64 1007.2
20260504140550 13 217 0.0 0.0 0.00 0.05 0.00 66 1007.3
20260504130542 12 219 0.0 1.6 0.00 0.10 0.00 67 1008.1
20260504110508 2 321 0.0 0.0 0.00 0.10 0.00 89 1008.5
20260504100501 1 321 0.0 0.0 0.00 0.10 0.00 89 1008.2
20260504090105 0 321 0.0 0.0 0.00 0.10 0.00 93 1008.1
20260504081555 0 321 0.0 0.0 0.00 0.10 0.00 92 1008.1
20260504081055 0 321 0.0 0.0 0.00 0.10 0.00 92 1008.0
20260504080554 0 321 0.0 0.0 0.00 0.10 0.00 92 1008.1
20260504050537 0 321 0.0 0.0 0.00 0.10 0.00 87 1007.9
20260504045536 0 321 0.0 0.0 0.00 0.10 0.00 86 1007.9
20260504045036 1 321 0.0 0.0 0.00 0.10 0.00 86 1007.9
20260504044543 1 321 0.0 0.0 0.00 0.10 0.00 86 1008.0
20260504044035 1 321 0.0 0.0 0.00 0.10 0.00 86 1007.9
20260504043534 1 321 0.0 0.0 0.00 0.10 0.00 86 1007.9
20260504043035 1 321 0.0 0.0 0.00 0.10 0.00 86 1007.9
20260504042534 1 321 0.0 0.0 0.00 0.10 0.00 86 1008.0
20260504042033 1 321 0.0 0.0 0.00 0.10 0.00 85 1008.0
20260504041532 1 321 0.0 0.0 0.00 0.10 0.00 85 1008.0
20260504041031 1 321 0.0 0.0 0.00 0.10 0.00 84 1007.9
20260504040530 1 321 0.0 0.0 0.00 0.10 0.00 85 1007.9
20260504040036 1 321 0.0 0.0 0.00 0.10 0.10 84 1007.8
20260504035528 1 321 0.0 0.0 0.00 0.10 0.10 84 1007.8
20260504035027 1 321 0.0 0.0 0.00 0.10 0.10 84 1007.8
20260504034527 2 321 0.0 0.0 0.00 0.10 0.10 83 1007.7
20260504034026 2 321 0.0 0.0 0.00 0.10 0.10 83 1007.7
20260504033527 2 321 0.0 0.0 0.00 0.10 0.10 82 1007.7
20260504033024 2 321 0.0 0.0 0.00 0.10 0.10 81 1007.6
20260504032523 2 321 0.0 0.0 0.00 0.10 0.10 80 1007.6
20260504032028 2 321 0.0 0.0 0.00 0.10 0.10 79 1007.6
20260504031527 2 321 0.0 0.0 0.00 0.10 0.10 79 1007.6
20260504031021 2 321 0.0 0.0 0.00 0.10 0.10 77 1007.6
20260504030520 2 321 0.0 0.0 0.00 0.10 0.10 77 1007.7
20260504030022 3 321 0.0 0.0 0.00 0.15 0.10 76 1007.6
20260504025518 3 321 0.0 0.0 0.00 0.15 0.10 76 1007.6
20260504025018 3 321 0.0 0.0 0.00 0.15 0.10 75 1007.6
20260504024516 3 321 0.0 0.0 0.00 0.15 0.10 73 1007.6
20260504024016 3 321 0.0 0.0 0.00 0.15 0.10 72 1007.6
20260504023514 3 321 0.0 0.0 0.00 0.15 0.10 71 1007.6
20260504023015 4 321 0.0 0.0 0.00 0.15 0.10 71 1007.6
20260504022514 4 321 0.0 0.0 0.00 0.15 0.10 70 1007.6
20260504022011 4 321 0.0 0.0 0.00 0.15 0.10 69 1007.5
20260504021512 5 321 0.0 0.0 0.00 0.15 0.10 68 1007.6
20260504021009 5 321 0.0 0.0 0.00 0.15 0.10 67 1007.5
20260504020509 5 321 0.0 0.0 0.00 0.15 0.10 66 1007.5
20260504020016 5 321 0.0 0.0 0.00 0.25 0.10 66 1007.4
20260504015509 5 321 0.0 0.0 0.00 0.25 0.10 65 1007.4
20260504015010 5 321 0.0 0.0 0.00 0.25 0.10 65 1007.4
20260504014508 6 321 0.0 0.0 0.00 0.25 0.10 64 1007.4
20260504014008 6 321 0.0 0.0 0.00 0.25 0.10 63 1007.3
20260504013507 6 321 0.0 0.0 0.00 0.25 0.10 62 1007.3
20260504013011 6 321 0.0 0.0 0.00 0.25 0.10 62 1007.2
20260504012511 6 320 0.0 0.0 0.00 0.25 0.10 61 1007.1
20260504012007 6 297 0.0 0.0 0.00 0.25 0.10 61 1007.1
20260504011507 6 298 0.0 0.0 0.00 0.25 0.10 61 1007.1
20260504011011 6 298 0.0 0.0 0.00 0.25 0.10 61 1006.9
20260504010512 6 264 0.0 0.0 0.00 0.25 0.10 61 1006.8
20260504010007 6 264 0.0 0.0 0.00 0.28 0.10 58 1006.8
20260504005506 7 263 0.0 0.0 0.00 0.28 0.10 56 1006.8
20260504005007 7 263 0.0 0.0 0.00 0.28 0.10 56 1006.6
20260504004507 7 263 0.0 0.0 0.00 0.28 0.10 56 1006.5
20260504004006 7 295 0.0 0.0 0.00 0.28 0.10 56 1006.4
20260504003505 7 285 0.0 0.0 0.00 0.28 0.10 55 1006.3
20260504003006 7 257 0.0 0.0 0.00 0.28 0.10 55 1006.2
20260504002505 7 302 0.0 0.0 0.00 0.28 0.10 55 1006.1
20260504002005 7 274 0.0 0.0 0.00 0.28 0.10 54 1006.1
20260504001505 7 209 0.0 0.0 0.00 0.28 0.10 54 1006.0
20260504001008 7 302 0.0 0.0 0.00 0.28 0.10 53 1005.9
20260504000509 7 302 0.0 1.6 0.00 0.28 0.10 53 1005.9
20260504000006 8 302 0.0 1.6 0.00 0.28 0.10 53 1005.7
20260503235506 8 309 0.0 0.0 0.00 0.28 0.10 52 1005.7
20260503235005 8 315 0.0 0.0 0.00 0.28 0.10 52 1005.5
20260503234504 8 319 0.0 0.0 0.00 0.28 0.10 50 1005.5
20260503234004 8 321 0.0 0.0 0.00 0.28 0.10 49 1005.4
20260503233503 8 316 0.0 1.6 0.00 0.28 0.10 50 1005.4
20260503233003 8 302 0.0 1.6 0.00 0.28 0.10 48 1005.3
20260503232503 8 355 0.0 1.6 0.00 0.28 0.10 48 1005.1
20260503232004 8 11 0.0 1.6 0.00 0.28 0.10 48 1005.1